Weather in Oktyabr'skiy

Russia / Khabarovsk Krai     49°03′22″N   140°14′54″E
temp.,
°C
wind,
m/s
gust,
m/s
humid.,
%
clouds,
%
prec.,
mm/h
press.,
hPa
HPBL,
m
27 february, sat
sat2701:00−16nw368297 0.0 1028150
04:00−19wnw348269 0.0 102968
07:00−19wnw23820 0.0 103045
10:00−13nw24750 0.0 1030263
13:00−7nnw14710 0.0 1029471
16:00−6sse23823 0.0 1026292
19:00−12ssw239464 0.0 102633
22:00−11sw229282 0.0 102430
28 february, sun
sun2801:00−10ssw2291100 0.0 102034
04:00−8sw1295100 0.7 101684
07:00−8wsw2283100 0.0 101327
10:00−3ssw1278100 0.0 101179
13:000sw31083100 0.0 10121200
16:00+1w298781 0.0 10111081
19:00−4w51360100 0.0 1014569
22:00−8w71562100 0.0 1016573
1 march, mon
mon101:00−11w7146294 0.0 1018571
04:00−13wnw5126697 0.0 1021380
07:00−16wnw5117028 0.0 1022267
10:00−14wnw6116714 0.0 1023575
13:00−12wnw576849 0.0 1023708
16:00−12wnw476425 0.0 1024913
19:00−16wnw615670 0.0 1026442
22:00−17wnw6157020 0.0 1028656
2 march, tue
tue201:00−18w515710 0.0 1028623
04:00−19wnw515660 0.0 1029675
07:00−22w36750 0.0 1030133
10:00−16wnw611620 0.0 1029706
13:00−13nw69620 0.0 1027579
16:00−13n46654 0.0 1026828
19:00−18nnw128030 0.0 102848
22:00−20nw228549 0.0 102926
3 march, wed
wed301:00−23nw22820 0.0 102826
04:00−24wnw22820 0.0 102826
07:00−25wnw23790 0.0 102732
10:00−17wnw25680 0.0 1026329
13:00−10sse13610 0.0 1024837
16:00−10sse24750 0.0 1022441
19:00−15ssw22880 0.0 102136
22:00−14sw238837 0.0 102055